Location: Batang Balui
(2.7000°N, 113.7833°E)
Time: 05:10:55
(UTC+00:00)

METEOR M2 - Visible Passes

Search period start: 23 March 2023 00:00
Search period end: 02 April 2023 00:00
Orbit: 819 x 826 km, 98.4° (Epoch: 22 March)

Date Brightness Start Highest point End Pass type
(mag) Time Alt. Az. Time Alt. Az. Time Alt. Az.
24 Mar ? 11:27:29 10° SW 11:30:54 17° WSW 11:34:18 10° WNW visible
25 Mar ? 11:06:22 10° SSW 11:10:58 29° WSW 11:15:35 10° NW visible
25 Mar ? 22:04:25 10° NNE 22:09:32 47° ESE 22:14:39 10° S visible
26 Mar ? 21:45:07 10° NE 21:49:36 27° ESE 21:54:05 10° SSE visible
27 Mar ? 21:26:29 10° ENE 21:29:40 16° ESE 21:32:50 10° SE visible
29 Mar ? 11:27:48 10° SW 11:31:08 17° WSW 11:34:28 10° WNW visible
30 Mar ? 11:06:38 10° SSW 11:11:12 29° WSW 11:15:46 10° NW visible
31 Mar ? 10:46:05 10° S 10:51:16 49° WSW 10:56:26 10° NNW visible
31 Mar ? 21:45:19 10° NE 21:49:49 28° ESE 21:54:20 10° SSE visible
01 Apr ? 21:26:38 10° ENE 21:29:54 16° ESE 21:33:08 10° SE visible
